Wind_Speed
7 7 7 7 7 8 8 8 8 8 8 8 9 9 10 10 11 11 11 11 12 12 12 12 13 12 11 11 11 13 13 13 11 11 11 10 9 9 9 10 10 9 9
8 8 9 8 8 8 9 9 9 9 9 9 9 9 10 10 10 11 11 11 12 12 13 13 13 13 13 13 13 13 13 13 12 12 11 11 11 11 11 11 11 11 11
8 9 9 9 9 10 10 10 10 10 10 10 10 9 10 10 10 10 11 12 12 13 13 13 14 14 14 14 14 14 14 14 14 14 13 12 13 12 11 12 13 13 12
9 9 9 10 10 11 11 11 10 10 10 11 11 11 10 10 11 11 12 12 12 14 14 14 14 15 15 15 15 15 15 15 15 15 15 14 14 14 14 13 14 14 14
10 10 10 10 11 12 12 12 11 11 12 12 12 11 11 11 11 11 12 13 13 14 15 15 14 14 15 15 15 15 16 16 16 17 16 15 16 16 15 15 16 16 16
11 11 11 11 12 12 12 12 12 12 12 13 13 13 12 12 12 12 13 13 14 15 15 15 14 14 14 15 15 15 15 16 16 17 18 17 18 18 17 16 17 17 17
11 11 11 11 12 12 12 11 12 13 13 13 14 13 14 14 14 14 15 15 15 15 15 15 15 14 14 15 16 16 17 16 17 18 18 18 19 19 19 18 18 18 18
12 13 12 12 12 12 12 13 13 14 14 15 14 14 16 16 16 17 16 17 17 17 17 17 16 16 16 16 17 17 17 17 18 18 19 19 19 19 19 18 18 18 19
15 14 13 13 13 13 13 13 14 14 15 16 16 16 17 17 17 17 17 16 16 17 17 17 18 17 17 17 17 17 18 18 18 18 19 20 20 20 20 20 19 19 19
15 16 15 15 14 14 14 14 14 15 16 16 16 17 18 17 17 17 17 18 18 17 18 18 19 19 19 18 19 19 19 19 19 19 19 20 20 21 21 21 21 21 20
16 16 16 16 15 15 15 15 15 16 17 17 17 17 18 18 18 18 18 18 18 18 18 18 19 20 20 20 21 20 20 20 20 20 19 19 20 21 21 21 22 21 21
16 16 16 15 15 15 16 16 17 18 18 18 18 19 19 19 19 19 19 18 18 19 19 19 19 19 20 21 21 20 20 20 21 21 21 20 21 21 21 21 22 21 21
17 17 16 16 16 17 17 17 18 19 20 20 20 20 20 20 20 20 19 19 18 19 19 20 19 20 20 20 21 21 21 22 22 22 21 22 22 22 22 21 21 21 22
17 18 18 17 17 17 18 19 20 20 21 22 21 21 21 20 20 20 20 20 20 19 20 20 21 21 21 21 22 22 22 22 22 22 22 22 22 22 22 23 22 22 23
18 19 18 18 18 19 19 19 20 20 21 22 21 20 20 20 20 20 20 20 21 21 21 21 22 22 22 22 22 23 22 22 22 23 24 23 24 24 25 24 24 23 24
18 19 19 19 19 19 19 19 19 20 20 19 20 20 19 20 20 21 21 21 22 22 22 22 22 23 23 23 23 23 23 23 24 24 25 25 25 26 26 26 25 25 25
19 18 18 18 19 19 19 19 20 20 19 19 19 20 20 20 21 22 21 22 22 22 22 21 22 23 23 23 23 24 23 23 24 24 25 26 26 26 26 26 27 26 26
20 19 19 19 20 20 20 20 20 20 20 20 20 21 21 21 21 21 22 22 22 22 22 21 21 21 22 23 23 24 24 24 24 25 26 26 27 26 26 26 26 26 26
20 20 20 20 21 21 21 21 20 20 21 21 21 21 21 21 21 21 21 21 22 22 23 22 21 22 22 23 23 24 25 25 25 26 27 26 26 26 27 27 27 27 27
21 21 22 21 21 21 21 21 20 20 20 21 21 21 21 21 22 22 22 22 22 22 23 23 22 22 22 22 23 24 24 24 25 25 25 25 26 27 27 28 28 29 29
21 22 22 21 21 20 21 21 21 21 21 21 21 21 22 22 22 23 23 22 22 22 23 23 23 23 23 23 24 24 24 25 24 24 24 25 26 27 28 28 29 29 30
21 21 21 20 20 20 20 21 22 21 21 21 20 21 21 22 22 23 23 23 22 22 23 23 24 24 24 24 25 25 25 25 25 24 25 26 27 27 27 28 28 28 29
19 19 20 21 20 21 21 21 21 21 21 21 21 21 21 21 22 22 22 22 22 22 22 22 23 24 24 24 24 24 24 24 24 25 26 26 26 26 26 27 28 29 29
19 19 19 20 21 21 22 22 22 22 22 22 22 22 22 22 22 22 22 22 21 22 22 22 23 23 23 23 23 23 23 24 24 25 26 26 26 26 27 27 28 29 29
20 20 20 20 21 21 22 22 22 22 22 22 22 22 22 22 22 22 22 21 21 21 22 23 23 23 23 23 22 22 22 23 24 25 26 26 26 26 27 27 28 29 29
20 20 21 20 21 21 22 22 22 22 21 21 22 22 23 22 22 22 22 22 21 21 21 22 23 23 23 22 22 22 22 23 23 24 24 24 24 25 25 25 26 27 27
Wind_Direction
280 281 282 279 273 273 276 276 276 277 279 278 275 275 273 273 268 265 262 257 255 255 257 258 263 259 259 258 260 256 255 254 253 256 256 258 263 264 269 266 259 256 259
272 273 274 271 271 274 276 273 272 275 277 278 276 272 273 274 273 270 264 261 258 257 257 258 259 261 262 261 262 261 258 253 250 253 256 256 258 265 269 266 259 256 262
266 266 264 264 268 270 273 274 275 276 278 281 279 278 277 275 275 272 265 263 260 258 256 257 258 260 263 263 260 259 259 253 251 252 256 257 256 259 266 266 263 263 263
270 267 265 265 268 272 274 275 274 273 276 279 279 279 275 272 271 268 266 266 265 263 262 264 263 261 262 263 262 260 256 255 252 252 255 258 258 258 263 266 266 265 264
271 270 270 269 267 271 274 272 271 269 272 275 277 275 272 272 270 269 268 268 268 264 264 266 264 262 262 260 259 258 257 256 253 252 254 258 259 258 262 264 264 266 266
271 271 273 272 269 272 272 271 268 269 269 272 273 272 272 273 271 271 269 269 267 263 261 261 261 262 262 258 256 256 257 257 255 254 256 259 261 260 261 262 263 264 263
273 275 273 271 271 274 274 273 270 271 271 270 269 270 272 272 270 269 269 270 267 263 260 258 257 258 261 259 256 257 258 257 257 258 258 260 262 262 261 260 263 264 262
274 274 273 273 273 275 276 275 272 270 270 270 270 271 272 272 271 271 269 270 269 265 260 257 257 259 263 263 259 257 256 255 255 257 258 260 262 264 262 260 261 261 261
270 273 272 271 272 273 275 272 271 271 272 272 272 273 273 273 273 274 273 273 272 268 263 259 258 260 262 262 260 257 256 256 257 258 259 260 260 260 260 258 259 260 259
270 271 271 269 268 271 274 272 272 273 273 272 272 273 273 273 272 271 273 272 272 270 265 263 262 260 262 263 262 260 260 260 259 259 261 261 260 262 262 261 260 261 260
269 269 267 266 268 271 272 272 271 272 274 273 274 275 274 273 272 270 271 271 272 269 266 265 264 262 262 263 263 262 261 260 260 259 260 260 260 262 262 263 262 263 261
269 269 265 264 266 269 272 271 273 272 273 274 275 275 274 273 274 272 270 269 269 269 266 265 264 263 265 264 264 265 263 263 261 260 260 261 261 262 262 263 263 263 262
267 267 265 266 267 268 270 271 274 274 273 274 274 275 274 273 274 273 270 266 266 267 266 265 263 263 266 266 266 266 265 264 262 262 262 261 261 262 263 265 265 264 263
270 269 266 266 268 271 272 275 276 275 274 274 275 275 275 274 274 274 271 268 265 264 265 266 264 264 265 266 266 264 265 263 262 262 263 263 261 260 262 264 265 264 264
270 271 268 268 271 274 276 278 279 274 274 274 276 275 276 275 274 273 271 270 267 265 266 267 266 266 266 266 265 263 263 263 264 263 263 264 263 263 263 263 264 264 265
268 270 270 271 274 277 278 278 279 277 278 278 277 278 277 276 274 273 272 272 270 267 265 266 268 269 269 269 268 265 264 265 266 266 265 264 263 262 263 263 263 264 265
267 269 271 271 274 276 276 276 275 276 277 277 277 277 275 275 276 274 275 274 271 267 265 268 269 270 271 271 269 268 267 265 265 265 265 265 264 264 264 263 265 264 265
266 267 270 272 274 276 276 277 277 277 278 278 278 276 273 274 276 276 275 273 270 266 265 267 269 269 269 269 268 267 266 266 265 266 266 265 266 265 266 266 266 266 267
263 266 269 273 277 277 278 278 279 279 279 279 279 277 274 273 273 274 274 273 270 267 264 265 266 267 268 270 269 267 266 266 267 267 267 266 266 267 267 269 269 268 267
261 265 270 274 277 278 277 276 278 279 280 279 278 276 275 272 272 272 273 272 270 268 266 264 264 267 271 273 272 270 267 267 269 269 268 267 268 268 269 270 270 270 270
262 267 271 275 276 277 277 276 278 279 280 279 279 279 277 276 273 272 271 271 271 270 269 268 267 269 272 275 275 272 270 269 269 269 268 269 269 269 270 271 272 271 270
264 267 270 273 275 278 279 278 278 278 279 279 280 280 280 278 275 274 271 271 270 270 271 271 269 270 271 273 274 272 272 272 269 267 268 269 270 271 273 274 274 274 273
267 269 271 271 274 277 277 279 279 279 277 277 278 279 279 277 276 274 273 272 271 269 271 273 273 271 272 274 275 274 273 272 270 269 270 272 272 273 274 275 275 275 275
268 268 271 272 273 276 277 278 279 279 277 277 277 276 277 277 278 276 275 273 272 271 272 273 273 273 275 276 276 275 273 273 273 273 273 274 275 276 276 276 276 275 275
271 271 271 274 276 276 277 278 279 279 279 278 277 275 276 276 276 275 274 272 272 272 273 275 276 275 275 275 275 274 274 275 275 275 274 274 276 276 277 278 278 277 276
273 273 275 276 279 278 278 278 277 277 278 277 277 276 277 275 273 273 272 271 272 273 275 277 275 275 273 273 273 274 277 278 277 276 275 276 277 278 278 278 278 278 278
Height
5856 5856 5855 5855 5855 5855 5856 5856 5856 5856 5856 5856 5856 5857 5857 5858 5858 5859 5860 5861 5861 5862 5863 5864 5865 5865 5866 5866 5867 5868 5868 5869 5870 5870 5871 5871 5872 5872 5873 5874 5874 5874 5875
5854 5853 5853 5853 5853 5854 5854 5854 5854 5854 5854 5854 5854 5855 5855 5855 5856 5856 5857 5858 5859 5859 5860 5861 5862 5862 5863 5863 5864 5864 5864 5865 5866 5867 5868 5869 5869 5870 5870 5871 5871 5872 5872
5852 5852 5852 5851 5851 5851 5851 5851 5851 5852 5852 5852 5852 5853 5853 5853 5853 5854 5854 5855 5855 5856 5857 5858 5858 5859 5859 5860 5860 5861 5861 5862 5863 5864 5865 5866 5867 5867 5868 5868 5869 5869 5869
5850 5850 5850 5849 5849 5848 5848 5849 5849 5850 5850 5850 5850 5850 5850 5850 5850 5851 5851 5852 5852 5853 5854 5854 5855 5855 5856 5856 5856 5857 5858 5858 5859 5861 5862 5863 5863 5864 5865 5865 5866 5866 5866
5847 5847 5847 5847 5847 5846 5846 5847 5847 5847 5847 5848 5848 5848 5848 5848 5848 5848 5848 5849 5849 5850 5850 5851 5851 5852 5852 5852 5853 5853 5854 5854 5855 5856 5858 5859 5860 5860 5861 5862 5862 5863 5863
5844 5844 5844 5844 5844 5844 5844 5844 5844 5844 5844 5845 5845 5845 5845 5845 5845 5845 5845 5845 5846 5846 5847 5847 5847 5848 5848 5848 5849 5849 5850 5851 5851 5852 5853 5854 5855 5856 5857 5858 5858 5859 5859
5841 5841 5841 5841 5841 5841 5841 5841 5841 5841 5841 5842 5842 5842 5842 5842 5842 5841 5841 5841 5842 5842 5842 5843 5843 5844 5844 5844 5845 5845 5846 5847 5848 5848 5849 5850 5851 5852 5852 5853 5854 5854 5855
5838 5838 5838 5838 5838 5838 5837 5837 5838 5838 5838 5838 5838 5838 5838 5839 5838 5838 5837 5837 5837 5837 5838 5838 5839 5839 5840 5840 5841 5841 5842 5842 5843 5844 5845 5845 5846 5847 5848 5848 5849 5850 5851
5835 5835 5835 5834 5834 5834 5834 5834 5834 5834 5834 5834 5834 5834 5834 5834 5834 5834 5833 5833 5832 5833 5833 5834 5834 5835 5835 5836 5836 5836 5837 5838 5839 5839 5840 5841 5842 5842 5843 5844 5845 5845 5846
5832 5831 5831 5831 5830 5831 5830 5830 5830 5830 5830 5830 5830 5830 5830 5830 5830 5830 5829 5828 5828 5828 5828 5829 5829 5830 5830 5831 5831 5832 5832 5833 5834 5835 5835 5836 5837 5837 5838 5838 5839 5840 5840
5828 5828 5827 5827 5827 5827 5826 5826 5826 5826 5826 5826 5826 5826 5825 5825 5825 5825 5824 5824 5823 5823 5823 5824 5824 5825 5825 5826 5827 5827 5827 5828 5829 5830 5830 5831 5831 5832 5832 5833 5833 5834 5835
5824 5823 5823 5823 5823 5823 5823 5822 5822 5822 5822 5822 5821 5821 5820 5820 5820 5819 5819 5819 5818 5818 5818 5819 5819 5819 5820 5821 5821 5822 5822 5823 5823 5824 5825 5825 5826 5826 5827 5827 5827 5828 5829
5819 5819 5818 5818 5819 5819 5818 5818 5817 5817 5816 5816 5816 5815 5815 5814 5814 5814 5814 5814 5813 5813 5813 5814 5814 5814 5815 5815 5816 5816 5817 5817 5818 5819 5819 5820 5820 5821 5821 5822 5822 5822 5823
5814 5814 5813 5813 5814 5814 5814 5813 5812 5812 5811 5811 5810 5810 5809 5809 5808 5808 5808 5808 5808 5809 5808 5809 5808 5809 5809 5809 5810 5810 5811 5811 5812 5813 5813 5814 5814 5815 5815 5816 5816 5816 5817
5810 5810 5809 5809 5809 5809 5809 5808 5807 5806 5806 5805 5805 5804 5803 5803 5803 5803 5802 5802 5803 5803 5804 5803 5803 5803 5803 5803 5804 5804 5805 5805 5806 5807 5807 5808 5808 5809 5809 5809 5810 5810 5810
5805 5805 5805 5804 5804 5804 5803 5802 5802 5801 5801 5800 5799 5799 5798 5797 5797 5797 5797 5797 5796 5797 5797 5797 5797 5797 5797 5797 5797 5797 5798 5799 5799 5800 5801 5801 5801 5802 5802 5803 5803 5803 5804
5799 5799 5799 5799 5799 5799 5798 5797 5796 5796 5795 5795 5794 5793 5793 5792 5791 5791 5791 5790 5790 5790 5791 5791 5791 5791 5791 5791 5791 5791 5791 5792 5792 5793 5794 5794 5794 5795 5795 5795 5795 5796 5796
5793 5794 5794 5794 5794 5793 5792 5791 5791 5790 5789 5789 5788 5787 5786 5786 5785 5785 5784 5784 5784 5784 5784 5785 5785 5785 5785 5785 5785 5785 5785 5785 5786 5786 5786 5787 5787 5787 5787 5788 5788 5788 5788
5787 5788 5788 5788 5787 5787 5786 5785 5784 5784 5783 5782 5781 5781 5780 5779 5779 5778 5778 5777 5777 5777 5778 5778 5779 5779 5779 5778 5778 5778 5779 5779 5779 5779 5779 5779 5779 5780 5780 5780 5780 5780 5781
5781 5782 5782 5782 5781 5781 5780 5779 5778 5777 5776 5776 5775 5774 5773 5773 5772 5772 5771 5771 5771 5771 5771 5771 5772 5772 5772 5772 5772 5772 5772 5771 5772 5771 5771 5771 5772 5772 5772 5772 5772 5772 5772
5775 5776 5776 5776 5775 5775 5774 5773 5772 5771 5770 5769 5768 5768 5767 5766 5765 5765 5765 5764 5764 5764 5764 5764 5765 5765 5765 5765 5765 5765 5765 5765 5764 5764 5764 5764 5764 5764 5764 5764 5764 5763 5763
5769 5770 5770 5770 5770 5769 5768 5767 5766 5765 5764 5763 5762 5761 5760 5759 5759 5758 5758 5757 5757 5757 5758 5757 5758 5758 5758 5758 5758 5757 5758 5758 5758 5758 5757 5757 5757 5757 5756 5756 5755 5755 5754
5763 5764 5764 5764 5764 5763 5762 5761 5760 5759 5758 5757 5756 5755 5754 5753 5752 5751 5751 5750 5750 5750 5751 5751 5751 5751 5751 5751 5751 5750 5750 5750 5751 5751 5750 5750 5749 5749 5748 5747 5747 5746 5746
5758 5758 5758 5758 5757 5756 5755 5754 5753 5752 5751 5750 5749 5748 5747 5746 5745 5744 5744 5744 5744 5744 5744 5744 5744 5743 5743 5743 5743 5743 5743 5743 5743 5743 5742 5742 5742 5741 5740 5739 5739 5738 5737
5752 5752 5752 5751 5751 5750 5749 5748 5747 5746 5745 5744 5742 5741 5740 5739 5738 5738 5737 5737 5737 5737 5737 5737 5737 5737 5736 5736 5736 5736 5736 5736 5736 5736 5735 5735 5734 5733 5732 5731 5730 5729 5728
5746 5746 5745 5745 5744 5743 5742 5741 5740 5739 5738 5737 5736 5734 5734 5732 5732 5731 5731 5731 5731 5730 5730 5729 5729 5729 5729 5729 5729 5730 5730 5729 5729 5728 5727 5727 5726 5725 5724 5724 5722 5720 5719